Location: Zagreb
(45.8000°N, 16.0000°E)
Time: 09:29:22
(UTC+01:00)

Vanguard 1 Rocket - All Passes

Search period start: 23 January 2020 00:00
Search period end: 02 February 2020 00:00
Orbit: 650 x 4226 km, 34.3° (Epoch: 22 January)

Date Brightness Start Highest point End Pass type
(mag) Time Alt. Az. Time Alt. Az. Time Alt. Az.
23 Jan - 08:31:41 10° S 08:37:27 20° SE 08:46:01 10° E daylight
23 Jan - 10:52:28 10° SW 11:01:59 48° SSE 11:19:46 10° E daylight
23 Jan - 13:16:27 10° W 13:29:43 54° S 13:52:31 10° ESE daylight
23 Jan - 15:42:52 10° W 15:59:08 38° SSW 16:21:15 10° SSE daylight
23 Jan - 18:16:25 10° WSW 18:27:41 16° SW 18:39:48 10° SSW visible
24 Jan - 09:42:43 10° SW 09:50:27 37° SSE 10:04:16 10° E daylight
24 Jan - 12:05:38 10° WSW 12:16:45 54° S 12:37:20 10° ESE daylight
24 Jan - 14:30:46 10° W 14:45:31 45° SSW 15:08:16 10° SE daylight
24 Jan - 16:59:49 10° W 17:14:37 24° SW 17:32:22 10° S visible
25 Jan - 08:33:44 10° SSW 08:39:39 24° SE 08:48:54 10° E daylight
25 Jan - 10:55:16 10° WSW 11:04:28 49° SSE 11:21:53 10° E daylight
25 Jan - 13:19:24 10° W 13:32:09 50° SSW 13:54:06 10° SE daylight
25 Jan - 15:46:09 10° W 16:01:14 32° SSW 16:21:42 10° SSE daylight
25 Jan - 18:26:19 10° WSW 18:29:29 10° SW 18:32:44 10° SW visible
26 Jan - 07:26:43 10° SSE 07:29:23 12° SE 07:32:33 10° ESE daylight
26 Jan - 09:45:22 10° SW 09:52:53 40° SSE 10:06:36 10° E daylight
26 Jan - 12:08:34 10° WSW 12:19:18 52° S 12:39:10 10° ESE daylight
26 Jan - 14:33:53 10° W 14:47:49 40° SSW 15:09:14 10° SE daylight
26 Jan - 17:04:21 10° WSW 17:16:34 19° SW 17:31:00 10° S visible
27 Jan - 08:36:03 10° SSW 08:41:59 28° SSE 08:51:37 10° E daylight
27 Jan - 10:58:08 10° WSW 11:07:03 49° S 11:23:57 10° ESE daylight
27 Jan - 13:22:26 10° W 13:34:37 45° SSW 13:55:29 10° SE daylight
27 Jan - 15:49:47 10° W 16:03:23 26° SW 16:21:36 10° S daylight
28 Jan - 07:27:55 10° S 07:31:37 15° SE 07:36:27 10° ESE daylight
28 Jan - 09:48:09 10° SW 09:55:27 42° SSE 10:08:53 10° E daylight
28 Jan - 12:11:33 10° WSW 12:21:52 48° S 12:40:53 10° ESE daylight
28 Jan - 14:37:09 10° W 14:50:09 34° SSW 15:09:50 10° SSE daylight
28 Jan - 17:10:41 10° WSW 17:18:37 13° SW 17:27:32 10° SSW visible
29 Jan - 08:38:35 10° SSW 08:44:27 31° SSE 08:54:12 10° E daylight
29 Jan - 11:01:06 10° WSW 11:09:41 48° S 11:25:57 10° ESE daylight
29 Jan - 13:25:34 10° W 13:37:07 40° SSW 13:56:35 10° SE daylight
29 Jan - 15:53:58 10° WSW 16:05:36 21° SW 16:20:40 10° S daylight
30 Jan - 07:29:50 10° S 07:33:58 19° SE 07:39:43 10° ESE daylight
30 Jan - 09:51:00 10° WSW 09:58:05 43° SSE 10:11:08 10° ESE daylight
30 Jan - 12:14:37 10° WSW 12:24:30 44° S 12:42:26 10° SE daylight
30 Jan - 14:40:43 10° W 14:52:33 28° SSW 15:09:56 10° SSE daylight
31 Jan - 08:41:17 10° SW 08:47:02 33° SSE 08:56:43 10° E daylight
31 Jan - 11:04:07 10° WSW 11:12:23 45° S 11:27:51 10° ESE daylight
31 Jan - 13:28:51 10° W 13:39:41 34° SSW 13:57:23 10° SSE daylight
31 Jan - 15:59:19 10° WSW 16:07:54 15° SW 16:18:18 10° SSW daylight
01 Feb - 07:32:07 10° SSW 07:36:27 22° SSE 07:42:41 10° ESE daylight
01 Feb - 09:53:56 10° WSW 10:00:47 42° S 10:13:19 10° ESE daylight
01 Feb - 12:17:46 10° WSW 12:27:10 38° SSW 12:43:45 10° SE daylight
01 Feb - 14:44:43 10° WSW 14:55:00 22° SSW 15:09:22 10° S daylight
